Regional Weather Roundup
Issued by NWS Upton, NY

Current Version | Previous Version | Text Only | Print | Product List | Glossary On
Versions: 1 2 3 4 5 6 7 8 9 10 11 12 13 14 15 16 17 18 19 20 21 22 23 24 25 26 27
000
ASUS41 KOKX 290904
RWROKX

REGIONAL WEATHER ROUNDUP
NATIONAL WEATHER SERVICE NEW YORK NY
500 AM EDT FRI JUL 29 2016

NOTE: "FAIR" INDICATES FEW OR NO CLOUDS BELOW 12,000 FEET WITH NO
SIGNIFICANT WEATHER AND/OR OBSTRUCTIONS TO VISIBILITY.

NYZ071-072-176-178-NJZ106-104-291000-
NEW YORK CITY METRO AREA

CITY           SKY/WX    TMP DP  RH WIND       PRES   REMARKS
Central Park   RAIN      72  70  93 VRB6      29.84F FOG
LaGuardia APRT RAIN      73  71  93 NE15      29.81F FOG
Kennedy INTL   CLOUDY    75  72  90 NE9       29.82F
Newark/Liberty HVY RAIN  72  71  97 N9        29.82F FOG
Bronx Bot Gard   N/A     70  68  94 NE5       29.84F
Wall St Helipt CLOUDY    73  72  94 NW3       29.84R
Teterboro      RAIN      72  70  93 NE8       29.82F FOG
$$

NYZ177-179-078>081-291000-
LONG ISLAND NEW YORK

CITY           SKY/WX    TMP DP  RH WIND       PRES   REMARKS
Farmingdale    CLOUDY    74  71  91 NE7       29.83S
MacArthur/ISP  CLOUDY    73  71  93 N14       29.82F
Shirley        CLOUDY    73  71  93 N7        29.84S
Riverhead      NOT AVBL
Westhampton    LGT RAIN  74  72  93 VRB5      29.86R FOG
Southhampton     N/A     73  73 100 CALM      29.81R
Bridgehampton    N/A     73  73 100 CALM      29.84R
East Hampton   FOG       74  73  99 CALM      29.85R VSB 1/4
Montauk          N/A     75  75 100 CALM      29.86S
$$

NYZ052-065-067-291000-
HUDSON VALLEY

CITY           SKY/WX    TMP DP  RH WIND       PRES   REMARKS
White Plains   RAIN      71  69  93 N8        29.85S FOG
Newburgh       LGT RAIN  72  72 100 VRB7      29.87F FOG
Montgomery     LGT RAIN  72  71  97 CALM      29.85F FOG
Poughkeepsie   LGT RAIN  74  71  91 CALM      29.84F FOG
Albany         LGT RAIN  69  67  93 E3        29.87S
$$

NJZ001-105-106-008-010-013-015-019>022-104-291000-
NEW JERSEY

CITY           SKY/WX    TMP DP  RH WIND       PRES   REMARKS
Newark/Liberty HVY RAIN  72  71  97 N9        29.82F FOG
Teterboro      RAIN      72  70  93 NE8       29.82F FOG
Caldwell       LGT RAIN  73  71  93 NE5       29.84S FOG
Morristown     HVY RAIN  72  70  94 CALM      29.85R
Somerville     RAIN      74  72  93 NW3       29.81F FOG
Linden         LGT RAIN  73  71  93 CALM      29.84F
Sussex         LGT RAIN  70  70 100 CALM      29.84F
Abdover          N/A     71  69  93 CALM      29.85F
Trenton        LGT RAIN  74  71  91 N6        29.81F FOG
Millville      CLOUDY    74  72  93 NE8       29.76F FOG
Atlantic City  CLOUDY    74  72  93 E5        29.77F FOG
Wrightstown    LGT RAIN  73  72  94 N7        29.78F FOG
Toms River     LGT RAIN  73  72  96 N5        29.81F FOG
Belmar         LGT RAIN  74  72  93 N3        29.82F FOG
$$

PAZ047>061-062-071-291000-
EASTERN PENNSYLVANIA

CITY           SKY/WX    TMP DP  RH WIND       PRES   REMARKS
Philadelphia   LGT RAIN  75  72  90 N14       29.80F
Allentown      RAIN      73  69  87 CALM      29.83F FOG
Scranton       CLOUDY    70  69  97 CALM      29.85F FOG
$$

CTZ002-004>006-009-010-012-RIZ004-006-007-MAZ004-011-015-291000-
SOUTHERN NEW ENGLAND
 IN CT

CITY           SKY/WX    TMP DP  RH WIND       PRES   REMARKS
Bradley INTL   LGT RAIN  72  69  90 NE5       29.87R
Hartford       LGT RAIN  76  73  91 CALM      29.86R
Danbury        LGT RAIN  71  68  90 NE5       29.88S
Wtrbury/Oxford   N/A     72  66  83 CALM      29.90S
Bridgeport     LGT RAIN  75  70  84 NE5       29.85S
Meriden        RAIN      73  70  90 CALM      29.87R FOG
New Haven      CLOUDY    73  70  90 N6        29.86S
Chester        LGT RAIN  73  70  88 N5G12     29.88S
Groton         LGT RAIN  73  72  96 N5        29.85R VSB 1/4
Wilimantic     LGT RAIN  75  73  93 VRB3      29.87R

 IN RI

CITY           SKY/WX    TMP DP  RH WIND       PRES   REMARKS
Providence     LGT RAIN  75  73  93 W3        29.85S FOG
Block Island   CLOUDY    75  75 100 S7        29.86R FOG
Westerly       CLOUDY    75  72  90 CALM      29.86R FOG
 IN MA

CITY           SKY/WX    TMP DP  RH WIND       PRES   REMARKS
Boston         LGT RAIN  77  73  87 W7        29.84S
Worchester     LGT RAIN  70  67  90 W7        29.90S
Westfield      LGT RAIN  71  69  93 CALM      29.87S
Provincetown   CLOUDY    74  73  97 S9        29.86R
Nantucket      FOG       71  70  96 CALM      29.85F VSB 3/4
$$

ANZ330-335-338-340-345-350-353-355-291000-
COASTAL MARINE OBSERVATIONS


STATION/POSITION TIME  SKY/WX   TEMP    WIND        PRES    VSBY  WAVE
                                AIR SEA DIR/SP/G                  HT/PER
                 (UTC)          (F)     (DEG/KT/KT) (MB)    (MI)  (FT/S)
NY HARB ENTRANCE 0750            75 73   50/  6/  8 1008.8          1/ 8
20S FIRE ISLAND  0750            77 78   60/  8/ 10 1008.8          1/ 6
GREAT SOUTH BAY  0800            78 82   30/  6/  8   N/A
23 SSW MONTAUK P 0750            74 73  160/  6/  6 1010.9          1/ 6
15 E BARNEGAT LI 0800               78                N/A           2/ 7
HUDSON CANYON    0750            79 80              1009.2          1/ 6
KINGS POINT      0800            74 73              1009.9
EXECUTION ROCKS  NOT AVBL
CENTRAL LI SOUND NOT AVBL
EASTERN LI SOUND NOT AVBL
ROBBINS REEF     0800            74      10/ 13/ 14 1009.2
$$


>>>>>>>>>>>>>>>>>>>>>>>>>>>> KEY <<<<<<<<<<<<<<<<<<<<<<<<<<<
>                                                          <
>     SKY/WX - Sky Condition/Present Weather               <
>     TMP    - Temperature in Fahrenheit                   <
>     DP     - Dew Point in Fahrenheit                     <
>     RH     - Relative Humidity in Percent                <
>     WIND   - Direction (from) and Speed in MPH           <
>     PRES   - Mean Sea Level Pressure (inches of Hg)      <
>     WCI    - Wind Chill Index                            <
>     VSB    - VISIBILITY IN MILES                         <
>     HX     - HEAT INDEX                                  <
>     TC     - TEMPERATURE IN CELSIUS                      <
>     VRB    - VARIABLE WIND DIRECTION                     <
>                                                          <
>>>>>>>>>>>>>>>>>>>>>>>>>>>> KEY <<<<<<<<<<<<<<<<<<<<<<<<<<<




USA.gov is the U.S. government's official web portal to all federal, state and local government web resources and services.